| time (UTC) | temp C | wind direction | speed KPH | gust KPH | rain 1hr cm | rain 24hr cm | rain mn cm | humidity % | barometer mb |
| 20260906022343 | 23 | 182 | 0.0 | 1.6 | 0.00 | 0.56 | 0.56 | 99 | 1034.8 |
| 20260906021840 | 23 | 180 | 0.0 | 3.2 | 0.00 | 0.56 | 0.56 | 99 | 1034.9 |
| 20260906021339 | 23 | 181 | 0.0 | 0.0 | 0.00 | 0.56 | 0.56 | 99 | 1034.8 |
| 20260906020834 | 23 | 176 | 3.2 | 3.2 | 0.00 | 0.56 | 0.56 | 99 | 1034.8 |
| 20260906020333 | 23 | 187 | 0.0 | 0.0 | 0.00 | 0.56 | 0.56 | 99 | 1034.7 |
| 20260906015828 | 23 | 188 | 3.2 | 4.8 | 0.00 | 0.56 | 0.56 | 99 | 1035.1 |
| 20260906015327 | 23 | 231 | 0.0 | 1.6 | 0.00 | 0.56 | 0.56 | 99 | 1034.8 |
| 20260906014826 | 23 | 185 | 0.0 | 0.0 | 0.00 | 0.56 | 0.56 | 99 | 1034.5 |
| 20260906014322 | 23 | 175 | 1.6 | 3.2 | 0.00 | 0.56 | 0.56 | 99 | 1034.6 |
| 20260906013818 | 23 | 188 | 0.0 | 3.2 | 0.00 | 0.56 | 0.56 | 99 | 1034.6 |
| 20260906013313 | 23 | 190 | 0.0 | 0.0 | 0.00 | 0.56 | 0.56 | 99 | 1034.7 |
| 20260906012808 | 23 | 193 | 0.0 | 0.0 | 0.00 | 0.56 | 0.56 | 99 | 1034.3 |
| 20260906012306 | 23 | 194 | 0.0 | 1.6 | 0.00 | 0.56 | 0.56 | 99 | 1034.7 |
| 20260906011758 | 23 | 196 | 0.0 | 0.0 | 0.00 | 0.56 | 0.56 | 99 | 1034.1 |
| 20260906011258 | 23 | 189 | 0.0 | 0.0 | 0.00 | 0.56 | 0.56 | 98 | 1034.3 |
| 20260906010754 | 23 | 184 | 0.0 | 0.0 | 0.00 | 0.56 | 0.56 | 98 | 1034.3 |
| 20260906010250 | 23 | 198 | 0.0 | 0.0 | 0.00 | 0.56 | 0.56 | 98 | 1034.3 |
| 20260906005744 | 23 | 187 | 0.0 | 1.6 | 0.00 | 0.56 | 0.56 | 97 | 1034.3 |
| 20260906005244 | 23 | 169 | 0.0 | 1.6 | 0.00 | 0.56 | 0.56 | 97 | 1034.3 |
| 20260906004737 | 23 | 177 | 0.0 | 3.2 | 0.00 | 0.56 | 0.56 | 97 | 1034.3 |
| 20260906004232 | 24 | 174 | 0.0 | 1.6 | 0.00 | 0.56 | 0.56 | 96 | 1034.2 |
| 20260906003727 | 23 | 193 | 0.0 | 0.0 | 0.00 | 0.56 | 0.56 | 96 | 1034.6 |
| 20260906003217 | 24 | 170 | 0.0 | 1.6 | 0.13 | 0.56 | 0.56 | 95 | 1034.5 |
| 20260906002711 | 24 | 180 | 0.0 | 0.0 | 0.13 | 0.56 | 0.56 | 94 | 1034.7 |
| 20260906002206 | 24 | 176 | 1.6 | 3.2 | 0.18 | 0.53 | 0.53 | 93 | 1034.8 |
| 20260906001702 | 24 | 188 | 1.6 | 4.8 | 0.30 | 0.53 | 0.53 | 94 | 1034.9 |
| 20260906001201 | 24 | 201 | 1.6 | 8.0 | 0.30 | 0.51 | 0.51 | 93 | 1035.2 |
| 20260906000657 | 25 | 185 | 0.0 | 9.7 | 0.18 | 0.48 | 0.48 | 94 | 1035.2 |
| 20260906000152 | 25 | 161 | 1.6 | 3.2 | 0.00 | 0.46 | 0.46 | 93 | 1035.4 |
| 20260905235651 | 25 | 174 | 1.6 | 3.2 | 0.00 | 0.46 | 0.46 | 92 | 1035.1 |
| 20260905235146 | 25 | 162 | 6.4 | 9.7 | 0.00 | 0.46 | 0.46 | 93 | 1035.3 |
| 20260905234641 | 25 | 199 | 1.6 | 4.8 | 0.00 | 0.46 | 0.46 | 92 | 1035.2 |
| 20260905234137 | 25 | 187 | 0.0 | 3.2 | 0.00 | 0.46 | 0.46 | 90 | 1034.5 |
| 20260905233632 | 26 | 125 | 3.2 | 4.8 | 1.98 | 0.46 | 0.46 | 86 | 1034.5 |
| 20260905233126 | 26 | 123 | 8.0 | 12.9 | 2.77 | 0.46 | 0.46 | 88 | 1034.1 |
| 20260905232621 | 27 | 98 | 4.8 | 25.7 | 0.79 | 0.13 | 0.13 | 84 | 1034.8 |
| 20260905232117 | 30 | 268 | 8.0 | 22.5 | 0.00 | 0.00 | 0.00 | 73 | 1034.6 |
| 20260905231617 | 32 | 98 | 3.2 | 4.8 | 0.00 | 0.00 | 0.00 | 69 | 1034.3 |
| 20260905231113 | 33 | 182 | 1.6 | 8.0 | 0.00 | 0.00 | 0.00 | 66 | 1034.2 |
| 20260905230609 | 33 | 73 | 4.8 | 8.0 | 0.00 | 0.00 | 0.00 | 65 | 1034.3 |
| 20260905230106 | 33 | 138 | 1.6 | 9.7 | 0.00 | 0.00 | 0.00 | 64 | 1034.0 |
| 20260905225600 | 33 | 157 | 1.6 | 4.8 | 0.00 | 0.00 | 0.00 | 65 | 1033.8 |
| 20260905225055 | 33 | 186 | 4.8 | 12.9 | 0.00 | 0.00 | 0.00 | 63 | 1033.9 |
| 20260905224550 | 33 | 183 | 0.0 | 3.2 | 0.00 | 0.00 | 0.00 | 64 | 1034.0 |
| 20260905224049 | 34 | 179 | 4.8 | 4.8 | 0.00 | 0.00 | 0.00 | 63 | 1034.0 |
| 20260905223547 | 33 | 171 | 0.0 | 4.8 | 0.00 | 0.00 | 0.00 | 64 | 1034.1 |
| 20260905223042 | 33 | 119 | 1.6 | 4.8 | 0.00 | 0.00 | 0.00 | 63 | 1034.0 |
| 20260905222537 | 33 | 171 | 1.6 | 1.6 | 0.00 | 0.00 | 0.00 | 63 | 1033.9 |
| 20260905222032 | 33 | 166 | 1.6 | 4.8 | 0.00 | 0.00 | 0.00 | 63 | 1033.9 |
| 20260905221529 | 33 | 154 | 3.2 | 8.0 | 0.00 | 0.00 | 0.00 | 63 | 1034.0 |
| 20260905221024 | 35 | 71 | 4.8 | 8.0 | 0.00 | 0.00 | 0.00 | 60 | 1033.9 |
| 20260905220520 | 35 | 179 | 1.6 | 4.8 | 0.00 | 0.00 | 0.00 | 56 | 1033.9 |
| 20260905220016 | 35 | 179 | 1.6 | 3.2 | 0.00 | 0.00 | 0.00 | 57 | 1034.0 |
| 20260905215510 | 35 | 182 | 1.6 | 4.8 | 0.00 | 0.00 | 0.00 | 57 | 1034.0 |
| 20260905215006 | 35 | 146 | 3.2 | 3.2 | 0.00 | 0.00 | 0.00 | 58 | 1034.1 |
| 20260905214501 | 35 | 197 | 1.6 | 3.2 | 0.00 | 0.00 | 0.00 | 57 | 1033.9 |
| 20260905214002 | 34 | 116 | 3.2 | 8.0 | 0.00 | 0.00 | 0.00 | 58 | 1033.8 |
| 20260905213458 | 35 | 161 | 1.6 | 3.2 | 0.00 | 0.00 | 0.00 | 56 | 1033.9 |
| 20260905212953 | 34 | 64 | 4.8 | 8.0 | 0.00 | 0.00 | 0.00 | 58 | 1034.0 |
| 20260905212447 | 33 | 115 | 1.6 | 4.8 | 0.00 | 0.00 | 0.00 | 59 | 1034.1 |
| 20260905211946 | 35 | 137 | 1.6 | 4.8 | 0.00 | 0.00 | 0.00 | 58 | 1034.1 |
| 20260905211442 | 33 | 180 | 0.0 | 3.2 | 0.00 | 0.00 | 0.00 | 60 | 1034.4 |
| 20260905210932 | 34 | 169 | 3.2 | 9.7 | 0.00 | 0.00 | 0.00 | 60 | 1034.2 |
| 20260905210432 | 35 | 119 | 1.6 | 9.7 | 0.00 | 0.00 | 0.00 | 58 | 1034.5 |
| 20260905205932 | 35 | 150 | 1.6 | 4.8 | 0.00 | 0.00 | 0.00 | 57 | 1034.6 |
| 20260905205427 | 34 | 192 | 0.0 | 3.2 | 0.00 | 0.00 | 0.00 | 58 | 1034.4 |
| 20260905204926 | 34 | 178 | 0.0 | 9.7 | 0.00 | 0.00 | 0.00 | 59 | 1034.7 |
| 20260905204422 | 36 | 195 | 8.0 | 12.9 | 0.00 | 0.00 | 0.00 | 57 | 1034.8 |
| 20260905203921 | 36 | 175 | 1.6 | 1.6 | 0.00 | 0.00 | 0.00 | 54 | 1034.7 |
| 20260905203417 | 35 | 191 | 0.0 | 4.8 | 0.00 | 0.00 | 0.00 | 55 | 1034.7 |
| 20260905202912 | 35 | 183 | 1.6 | 3.2 | 0.00 | 0.00 | 0.00 | 55 | 1034.8 |
| 20260905202407 | 35 | 193 | 0.0 | 3.2 | 0.00 | 0.00 | 0.00 | 52 | 1034.5 |
| 20260905201903 | 36 | 211 | 1.6 | 3.2 | 0.00 | 0.00 | 0.00 | 53 | 1034.9 |
| 20260905201358 | 36 | 227 | 3.2 | 4.8 | 0.00 | 0.00 | 0.00 | 52 | 1035.0 |
| 20260905200857 | 37 | 271 | 6.4 | 8.0 | 0.00 | 0.00 | 0.00 | 51 | 1034.6 |
| 20260905200354 | 36 | 329 | 3.2 | 4.8 | 0.00 | 0.00 | 0.00 | 50 | 1034.9 |
| 20260905195852 | 36 | 194 | 1.6 | 9.7 | 0.00 | 0.00 | 0.00 | 53 | 1034.9 |
| 20260905195347 | 37 | 177 | 4.8 | 8.0 | 0.00 | 0.00 | 0.00 | 50 | 1034.9 |
| 20260905194842 | 37 | 195 | 4.8 | 4.8 | 0.00 | 0.00 | 0.00 | 49 | 1035.2 |
| 20260905194336 | 37 | 300 | 4.8 | 8.0 | 0.00 | 0.00 | 0.00 | 49 | 1035.0 |
| 20260905193836 | 38 | 208 | 3.2 | 9.7 | 0.00 | 0.00 | 0.00 | 48 | 1035.2 |
| 20260905193331 | 37 | 190 | 3.2 | 4.8 | 0.00 | 0.00 | 0.00 | 49 | 1035.4 |
| 20260905192827 | 37 | 218 | 4.8 | 9.7 | 0.00 | 0.00 | 0.00 | 49 | 1035.2 |
| 20260905192322 | 37 | 193 | 0.0 | 8.0 | 0.00 | 0.00 | 0.00 | 50 | 1035.2 |
| 20260905191821 | 37 | 198 | 0.0 | 11.3 | 0.00 | 0.00 | 0.00 | 51 | 1035.2 |
| 20260905191320 | 37 | 251 | 4.8 | 9.7 | 0.00 | 0.00 | 0.00 | 51 | 1035.6 |
| 20260905190818 | 37 | 192 | 1.6 | 4.8 | 0.00 | 0.00 | 0.00 | 52 | 1035.5 |
| 20260905190313 | 37 | 191 | 0.0 | 11.3 | 0.00 | 0.00 | 0.00 | 52 | 1035.6 |
| 20260905185812 | 36 | 228 | 4.8 | 9.7 | 0.00 | 0.00 | 0.00 | 54 | 1035.5 |
| 20260905185307 | 36 | 210 | 0.0 | 8.0 | 0.00 | 0.00 | 0.00 | 52 | 1035.8 |
| 20260905184806 | 37 | 34 | 4.8 | 9.7 | 0.00 | 0.00 | 0.00 | 51 | 1035.8 |
| 20260905184300 | 37 | 192 | 0.0 | 3.2 | 0.00 | 0.00 | 0.00 | 49 | 1035.5 |
| 20260905183759 | 37 | 223 | 3.2 | 11.3 | 0.00 | 0.00 | 0.00 | 54 | 1035.7 |
| 20260905183254 | 37 | 252 | 4.8 | 9.7 | 0.00 | 0.00 | 0.00 | 51 | 1035.9 |
| 20260905182754 | 37 | 195 | 4.8 | 4.8 | 0.00 | 0.00 | 0.00 | 50 | 1036.0 |
| 20260905182254 | 37 | 218 | 1.6 | 4.8 | 0.00 | 0.00 | 0.00 | 53 | 1036.1 |
| 20260905181749 | 37 | 193 | 0.0 | 9.7 | 0.00 | 0.00 | 0.00 | 54 | 1036.1 |
| 20260905181248 | 37 | 203 | 1.6 | 4.8 | 0.00 | 0.00 | 0.00 | 55 | 1036.0 |
| 20260905180743 | 36 | 227 | 0.0 | 3.2 | 0.00 | 0.00 | 0.00 | 58 | 1036.2 |
| 20260905180238 | 35 | 134 | 0.0 | 3.2 | 0.00 | 0.00 | 0.00 | 61 | 1036.5 |
| 20260905175733 | 35 | 123 | 4.8 | 8.0 | 0.00 | 0.00 | 0.00 | 62 | 1036.6 |
| 20260905175227 | 35 | 184 | 1.6 | 8.0 | 0.00 | 0.00 | 0.00 | 64 | 1036.6 |
| 20260905174722 | 36 | 57 | 1.6 | 14.5 | 0.00 | 0.00 | 0.00 | 61 | 1036.5 |
| 20260905174218 | 36 | 190 | 0.0 | 4.8 | 0.00 | 0.00 | 0.00 | 60 | 1036.5 |
| 20260905173714 | 36 | 188 | 0.0 | 3.2 | 0.00 | 0.00 | 0.00 | 61 | 1036.7 |
| 20260905173210 | 37 | 188 | 0.0 | 4.8 | 0.00 | 0.00 | 0.00 | 59 | 1036.5 |
| 20260905172709 | 36 | 190 | 0.0 | 9.7 | 0.00 | 0.00 | 0.00 | 60 | 1036.6 |
| 20260905172203 | 36 | 168 | 6.4 | 12.9 | 0.00 | 0.00 | 0.00 | 58 | 1036.7 |
| 20260905171659 | 35 | 183 | 0.0 | 4.8 | 0.00 | 0.00 | 0.00 | 62 | 1036.8 |
| 20260905171155 | 35 | 195 | 0.0 | 4.8 | 0.00 | 0.00 | 0.00 | 61 | 1037.3 |
| 20260905170652 | 35 | 197 | 3.2 | 4.8 | 0.00 | 0.00 | 0.00 | 61 | 1037.1 |
| 20260905170152 | 35 | 100 | 1.6 | 3.2 | 0.00 | 0.00 | 0.00 | 62 | 1037.1 |
| 20260905165652 | 35 | 193 | 0.0 | 4.8 | 0.00 | 0.00 | 0.00 | 63 | 1037.1 |
| 20260905165147 | 35 | 177 | 4.8 | 9.7 | 0.00 | 0.00 | 0.00 | 63 | 1037.2 |
| 20260905164642 | 35 | 166 | 4.8 | 4.8 | 0.00 | 0.00 | 0.00 | 62 | 1037.3 |
| 20260905164141 | 35 | 193 | 0.0 | 0.0 | 0.00 | 0.00 | 0.00 | 63 | 1037.3 |
| 20260905163637 | 34 | 190 | 0.0 | 8.0 | 0.00 | 0.00 | 0.00 | 67 | 1037.4 |
| 20260905163134 | 34 | 155 | 0.0 | 8.0 | 0.00 | 0.00 | 0.00 | 65 | 1037.5 |
| 20260905162630 | 34 | 182 | 1.6 | 3.2 | 0.00 | 0.00 | 0.00 | 65 | 1037.5 |
| 20260905162129 | 33 | 209 | 3.2 | 4.8 | 0.00 | 0.00 | 0.00 | 67 | 1037.6 |
| 20260905161628 | 33 | 188 | 0.0 | 1.6 | 0.00 | 0.00 | 0.00 | 68 | 1037.6 |
| 20260905161126 | 33 | 176 | 0.0 | 1.6 | 0.00 | 0.00 | 0.00 | 67 | 1037.6 |
| 20260905160621 | 33 | 225 | 1.6 | 8.0 | 0.00 | 0.00 | 0.00 | 71 | 1037.5 |
| 20260905160120 | 33 | 178 | 0.0 | 3.2 | 0.00 | 0.00 | 0.00 | 70 | 1037.8 |
| 20260905155615 | 32 | 181 | 0.0 | 3.2 | 0.00 | 0.00 | 0.00 | 71 | 1037.7 |
| 20260905155108 | 32 | 191 | 0.0 | 1.6 | 0.00 | 0.00 | 0.00 | 72 | 1037.9 |
| 20260905154608 | 32 | 175 | 0.0 | 4.8 | 0.00 | 0.00 | 0.00 | 72 | 1038.0 |
| 20260905154104 | 32 | 235 | 3.2 | 3.2 | 0.00 | 0.00 | 0.00 | 72 | 1038.0 |
| 20260905153559 | 32 | 196 | 0.0 | 0.0 | 0.00 | 0.00 | 0.00 | 73 | 1038.1 |
| 20260905153054 | 32 | 187 | 0.0 | 0.0 | 0.00 | 0.00 | 0.00 | 73 | 1038.2 |
| 20260905152549 | 31 | 174 | 0.0 | 0.0 | 0.00 | 0.00 | 0.00 | 76 | 1038.2 |
| 20260905152044 | 31 | 174 | 1.6 | 4.8 | 0.00 | 0.00 | 0.00 | 77 | 1038.0 |
| 20260905151539 | 30 | 205 | 1.6 | 3.2 | 0.00 | 0.00 | 0.00 | 79 | 1038.0 |
| 20260905151034 | 30 | 194 | 0.0 | 1.6 | 0.00 | 0.00 | 0.00 | 79 | 1038.3 |
| 20260905150524 | 29 | 164 | 0.0 | 1.6 | 0.00 | 0.00 | 0.00 | 81 | 1038.3 |
| 20260905150021 | 29 | 168 | 3.2 | 4.8 | 0.00 | 0.00 | 0.00 | 82 | 1038.2 |
| 20260905145515 | 28 | 189 | 0.0 | 4.8 | 0.00 | 0.00 | 0.00 | 86 | 1038.3 |
| 20260905145015 | 28 | 186 | 0.0 | 1.6 | 0.00 | 0.00 | 0.00 | 86 | 1038.2 |
| 20260905144509 | 27 | 188 | 0.0 | 1.6 | 0.00 | 0.00 | 0.00 | 87 | 1038.2 |
| 20260905144008 | 27 | 195 | 0.0 | 0.0 | 0.00 | 0.00 | 0.00 | 88 | 1038.2 |
| 20260905143507 | 27 | 185 | 0.0 | 1.6 | 0.00 | 0.00 | 0.00 | 89 | 1038.4 |
| 20260905143002 | 27 | 185 | 0.0 | 1.6 | 0.00 | 0.00 | 0.00 | 90 | 1038.3 |
| 20260905142501 | 26 | 198 | 0.0 | 1.6 | 0.00 | 0.00 | 0.00 | 90 | 1038.4 |
| 20260905141957 | 26 | 191 | 0.0 | 3.2 | 0.00 | 0.00 | 0.00 | 91 | 1038.6 |
| 20260905141451 | 26 | 188 | 0.0 | 0.0 | 0.00 | 0.00 | 0.00 | 92 | 1038.4 |
| 20260905140948 | 26 | 190 | 0.0 | 1.6 | 0.00 | 0.00 | 0.00 | 92 | 1038.4 |
| 20260905140443 | 26 | 189 | 0.0 | 0.0 | 0.00 | 0.00 | 0.00 | 93 | 1038.5 |
| 20260905135941 | 26 | 196 | 0.0 | 1.6 | 0.00 | 0.00 | 0.00 | 93 | 1038.4 |
| 20260905135437 | 26 | 185 | 0.0 | 0.0 | 0.00 | 0.00 | 0.00 | 94 | 1038.4 |
| 20260905134927 | 25 | 171 | 0.0 | 0.0 | 0.00 | 0.00 | 0.00 | 94 | 1038.4 |
| 20260905134426 | 25 | 201 | 0.0 | 0.0 | 0.00 | 0.00 | 0.00 | 95 | 1038.3 |
| 20260905133920 | 25 | 186 | 0.0 | 0.0 | 0.00 | 0.00 | 0.00 | 96 | 1038.6 |
| 20260905133420 | 25 | 183 | 0.0 | 0.0 | 0.00 | 0.00 | 0.00 | 97 | 1038.1 |
| 20260905132920 | 25 | 184 | 0.0 | 0.0 | 0.00 | 0.00 | 0.00 | 97 | 1038.4 |
| 20260905132415 | 25 | 188 | 0.0 | 0.0 | 0.00 | 0.00 | 0.00 | 98 | 1038.3 |
| 20260905131910 | 25 | 149 | 0.0 | 3.2 | 0.00 | 0.00 | 0.00 | 99 | 1038.4 |
| 20260905131406 | 24 | 147 | 1.6 | 3.2 | 0.00 | 0.00 | 0.00 | 99 | 1038.5 |
| 20260905130906 | 24 | 179 | 0.0 | 1.6 | 0.00 | 0.00 | 0.00 | 99 | 1038.4 |
| 20260905130406 | 24 | 184 | 0.0 | 0.0 | 0.00 | 0.00 | 0.00 | 99 | 1038.6 |
| 20260905125901 | 24 | 173 | 0.0 | 0.0 | 0.00 | 0.00 | 0.00 | 99 | 1038.6 |
| 20260905125355 | 23 | 184 | 0.0 | 0.0 | 0.00 | 0.00 | 0.00 | 99 | 1038.7 |
| 20260905124851 | 23 | 174 | 0.0 | 0.0 | 0.00 | 0.00 | 0.00 | 99 | 1038.6 |
| 20260905124347 | 23 | 180 | 0.0 | 0.0 | 0.00 | 0.00 | 0.00 | 99 | 1038.7 |
| 20260905123842 | 23 | 177 | 0.0 | 1.6 | 0.00 | 0.00 | 0.00 | 99 | 1038.6 |
| 20260905123339 | 24 | 184 | 0.0 | 0.0 | 0.00 | 0.00 | 0.00 | 99 | 1038.5 |
| 20260905122838 | 23 | 183 | 0.0 | 0.0 | 0.00 | 0.00 | 0.00 | 99 | 1038.5 |
| 20260905122337 | 23 | 186 | 0.0 | 0.0 | 0.00 | 0.00 | 0.00 | 99 | 1038.3 |
| 20260905121833 | 23 | 185 | 0.0 | 0.0 | 0.00 | 0.00 | 0.00 | 99 | 1038.5 |
| 20260905121330 | 23 | 182 | 0.0 | 0.0 | 0.00 | 0.00 | 0.00 | 99 | 1038.2 |
| 20260905120828 | 22 | 186 | 0.0 | 0.0 | 0.00 | 0.00 | 0.00 | 99 | 1038.1 |
| 20260905120323 | 22 | 186 | 0.0 | 0.0 | 0.00 | 0.00 | 0.00 | 99 | 1038.2 |
| 20260905115818 | 22 | 185 | 0.0 | 0.0 | 0.00 | 0.00 | 0.00 | 99 | 1038.2 |
| 20260905115317 | 22 | 183 | 0.0 | 0.0 | 0.00 | 0.00 | 0.00 | 99 | 1038.2 |
| 20260905114812 | 22 | 185 | 0.0 | 0.0 | 0.00 | 0.00 | 0.00 | 99 | 1038.0 |
| 20260905114311 | 22 | 186 | 0.0 | 0.0 | 0.00 | 0.00 | 0.00 | 99 | 1038.0 |
| 20260905113810 | 22 | 181 | 0.0 | 0.0 | 0.00 | 0.00 | 0.00 | 99 | 1037.8 |
| 20260905113306 | 22 | 184 | 0.0 | 0.0 | 0.00 | 0.00 | 0.00 | 99 | 1037.8 |
| 20260905112801 | 22 | 185 | 0.0 | 0.0 | 0.00 | 0.00 | 0.00 | 99 | 1038.0 |
| 20260905112256 | 22 | 186 | 0.0 | 0.0 | 0.00 | 0.00 | 0.00 | 99 | 1037.9 |
| 20260905111751 | 22 | 181 | 0.0 | 0.0 | 0.00 | 0.00 | 0.00 | 99 | 1037.8 |
| 20260905111251 | 22 | 177 | 0.0 | 0.0 | 0.00 | 0.00 | 0.00 | 99 | 1037.6 |
| 20260905110750 | 22 | 184 | 0.0 | 0.0 | 0.00 | 0.00 | 0.00 | 99 | 1037.7 |
| 20260905110244 | 22 | 184 | 0.0 | 0.0 | 0.00 | 0.00 | 0.00 | 99 | 1037.5 |
| 20260905105740 | 22 | 177 | 0.0 | 0.0 | 0.00 | 0.00 | 0.00 | 99 | 1037.4 |
| 20260905105239 | 22 | 184 | 0.0 | 0.0 | 0.00 | 0.00 | 0.00 | 99 | 1037.2 |
| 20260905104734 | 22 | 182 | 0.0 | 0.0 | 0.00 | 0.00 | 0.00 | 99 | 1037.1 |
| 20260905104230 | 22 | 180 | 0.0 | 0.0 | 0.00 | 0.00 | 0.00 | 99 | 1037.2 |
| 20260905103725 | 22 | 184 | 0.0 | 0.0 | 0.00 | 0.00 | 0.00 | 99 | 1037.1 |
| 20260905103221 | 22 | 184 | 0.0 | 0.0 | 0.00 | 0.00 | 0.00 | 99 | 1037.3 |
| 20260905102716 | 22 | 183 | 0.0 | 0.0 | 0.00 | 0.00 | 0.00 | 99 | 1037.1 |
| 20260905102213 | 22 | 183 | 0.0 | 0.0 | 0.00 | 0.00 | 0.00 | 99 | 1036.9 |
| 20260905101711 | 22 | 185 | 0.0 | 0.0 | 0.00 | 0.00 | 0.00 | 99 | 1037.1 |
| 20260905101210 | 22 | 185 | 0.0 | 0.0 | 0.00 | 0.00 | 0.00 | 99 | 1037.1 |
| 20260905100706 | 22 | 184 | 0.0 | 0.0 | 0.00 | 0.00 | 0.00 | 99 | 1037.1 |
| 20260905100201 | 22 | 184 | 0.0 | 0.0 | 0.00 | 0.00 | 0.00 | 99 | 1037.1 |
| 20260905095700 | 22 | 172 | 0.0 | 0.0 | 0.00 | 0.00 | 0.00 | 99 | 1037.1 |
| 20260905095155 | 22 | 188 | 0.0 | 0.0 | 0.00 | 0.00 | 0.00 | 99 | 1037.1 |
| 20260905094650 | 22 | 191 | 0.0 | 0.0 | 0.00 | 0.00 | 0.00 | 99 | 1037.1 |
| 20260905094150 | 22 | 184 | 0.0 | 0.0 | 0.00 | 0.00 | 0.00 | 99 | 1037.3 |
| 20260905093644 | 23 | 180 | 0.0 | 0.0 | 0.00 | 0.00 | 0.00 | 99 | 1037.2 |
| 20260905093140 | 22 | 184 | 0.0 | 0.0 | 0.00 | 0.00 | 0.00 | 99 | 1036.9 |
| 20260905092640 | 22 | 190 | 0.0 | 0.0 | 0.00 | 0.00 | 0.00 | 99 | 1037.1 |
| 20260905092136 | 22 | 186 | 0.0 | 0.0 | 0.00 | 0.00 | 0.00 | 99 | 1036.9 |
| 20260905091635 | 22 | 187 | 0.0 | 0.0 | 0.00 | 0.00 | 0.00 | 99 | 1037.1 |
| 20260905091130 | 22 | 180 | 0.0 | 0.0 | 0.00 | 0.00 | 0.00 | 99 | 1036.8 |
| 20260905090624 | 22 | 185 | 0.0 | 0.0 | 0.00 | 0.00 | 0.00 | 99 | 1036.9 |
| 20260905090120 | 22 | 186 | 0.0 | 0.0 | 0.00 | 0.00 | 0.00 | 99 | 1037.1 |
| 20260905085618 | 22 | 184 | 0.0 | 0.0 | 0.00 | 0.00 | 0.00 | 99 | 1036.9 |
| 20260905085114 | 22 | 181 | 0.0 | 0.0 | 0.00 | 0.00 | 0.00 | 98 | 1036.9 |
| 20260905084613 | 23 | 184 | 0.0 | 0.0 | 0.00 | 0.00 | 0.00 | 98 | 1037.1 |
| 20260905084109 | 23 | 183 | 0.0 | 0.0 | 0.00 | 0.00 | 0.00 | 98 | 1037.2 |
| 20260905083603 | 23 | 177 | 0.0 | 0.0 | 0.00 | 0.00 | 0.00 | 98 | 1037.1 |
| 20260905083100 | 23 | 184 | 0.0 | 0.0 | 0.00 | 0.00 | 0.00 | 98 | 1036.6 |
| 20260905082554 | 23 | 184 | 0.0 | 0.0 | 0.00 | 0.00 | 0.00 | 98 | 1036.8 |
| 20260905082051 | 23 | 184 | 0.0 | 0.0 | 0.00 | 0.00 | 0.00 | 98 | 1037.1 |
| 20260905081549 | 23 | 183 | 0.0 | 0.0 | 0.00 | 0.00 | 0.00 | 98 | 1037.2 |
| 20260905081045 | 23 | 169 | 1.6 | 1.6 | 0.00 | 0.00 | 0.00 | 97 | 1036.9 |
| 20260905080544 | 23 | 169 | 0.0 | 0.0 | 0.00 | 0.00 | 0.00 | 97 | 1036.7 |
| 20260905080040 | 23 | 190 | 0.0 | 0.0 | 0.00 | 0.00 | 0.00 | 97 | 1036.9 |
| 20260905075539 | 23 | 182 | 0.0 | 0.0 | 0.00 | 0.00 | 0.00 | 97 | 1036.9 |
| 20260905075038 | 23 | 174 | 0.0 | 1.6 | 0.00 | 0.00 | 0.00 | 97 | 1036.7 |
| 20260905074532 | 23 | 186 | 1.6 | 1.6 | 0.00 | 0.00 | 0.00 | 97 | 1036.8 |
| 20260905074028 | 23 | 186 | 0.0 | 0.0 | 0.00 | 0.00 | 0.00 | 97 | 1036.7 |
| 20260905073523 | 23 | 183 | 0.0 | 0.0 | 0.00 | 0.00 | 0.00 | 97 | 1037.1 |
| 20260905073020 | 23 | 184 | 0.0 | 0.0 | 0.00 | 0.00 | 0.00 | 97 | 1036.9 |
| 20260905072518 | 23 | 186 | 0.0 | 0.0 | 0.00 | 0.00 | 0.00 | 97 | 1036.7 |
| 20260905072014 | 23 | 186 | 0.0 | 0.0 | 0.00 | 0.00 | 0.00 | 97 | 1036.7 |
| 20260905071511 | 23 | 186 | 0.0 | 0.0 | 0.00 | 0.00 | 0.00 | 97 | 1036.8 |
| 20260905071011 | 23 | 184 | 0.0 | 0.0 | 0.00 | 0.00 | 0.00 | 97 | 1037.1 |
| 20260905070506 | 23 | 184 | 0.0 | 0.0 | 0.00 | 0.00 | 0.00 | 97 | 1037.2 |
| 20260905070002 | 23 | 183 | 0.0 | 0.0 | 0.00 | 0.00 | 0.00 | 97 | 1037.2 |
| 20260905065459 | 23 | 183 | 0.0 | 0.0 | 0.00 | 0.00 | 0.00 | 97 | 1037.2 |
| 20260905064955 | 23 | 184 | 0.0 | 0.0 | 0.00 | 0.00 | 0.00 | 97 | 1037.3 |
| 20260905064450 | 23 | 184 | 0.0 | 0.0 | 0.00 | 0.00 | 0.00 | 96 | 1037.4 |
| 20260905063944 | 23 | 186 | 0.0 | 0.0 | 0.00 | 0.00 | 0.00 | 96 | 1037.3 |
| 20260905063433 | 23 | 174 | 0.0 | 0.0 | 0.00 | 0.00 | 0.00 | 96 | 1037.5 |
| 20260905062929 | 23 | 172 | 0.0 | 0.0 | 0.00 | 0.00 | 0.00 | 95 | 1037.4 |
| 20260905062424 | 24 | 185 | 0.0 | 0.0 | 0.00 | 0.00 | 0.00 | 95 | 1037.4 |
| 20260905061919 | 24 | 183 | 0.0 | 0.0 | 0.00 | 0.00 | 0.00 | 95 | 1037.5 |
| 20260905061419 | 24 | 183 | 0.0 | 0.0 | 0.00 | 0.00 | 0.00 | 95 | 1037.3 |
| 20260905060918 | 24 | 189 | 0.0 | 0.0 | 0.00 | 0.00 | 0.00 | 95 | 1037.4 |
| 20260905060415 | 24 | 189 | 0.0 | 0.0 | 0.00 | 0.00 | 0.00 | 95 | 1037.3 |
| 20260905055914 | 24 | 189 | 0.0 | 0.0 | 0.00 | 0.00 | 0.00 | 95 | 1037.3 |
| 20260905055409 | 24 | 178 | 0.0 | 0.0 | 0.00 | 0.00 | 0.00 | 95 | 1037.6 |
| 20260905054908 | 24 | 178 | 0.0 | 0.0 | 0.00 | 0.00 | 0.00 | 96 | 1037.5 |
| 20260905054405 | 24 | 182 | 0.0 | 0.0 | 0.00 | 0.00 | 0.00 | 96 | 1037.5 |
| 20260905053904 | 24 | 185 | 0.0 | 0.0 | 0.00 | 0.00 | 0.00 | 95 | 1037.4 |
| 20260905053359 | 24 | 176 | 0.0 | 0.0 | 0.00 | 0.00 | 0.00 | 95 | 1037.4 |
| 20260905052855 | 24 | 179 | 0.0 | 0.0 | 0.00 | 0.00 | 0.00 | 95 | 1037.4 |
| 20260905052354 | 23 | 180 | 0.0 | 0.0 | 0.00 | 0.00 | 0.00 | 95 | 1037.3 |
| 20260905051854 | 24 | 178 | 0.0 | 0.0 | 0.00 | 0.00 | 0.00 | 95 | 1037.3 |
| 20260905051350 | 24 | 183 | 0.0 | 0.0 | 0.00 | 0.00 | 0.00 | 95 | 1037.4 |
| 20260905050847 | 24 | 183 | 0.0 | 0.0 | 0.00 | 0.00 | 0.00 | 94 | 1037.3 |
| 20260905050342 | 24 | 184 | 0.0 | 0.0 | 0.00 | 0.00 | 0.00 | 94 | 1037.2 |
| 20260905045843 | 25 | 157 | 1.6 | 3.2 | 0.00 | 0.00 | 0.00 | 94 | 1037.4 |
| 20260905045338 | 25 | 180 | 0.0 | 0.0 | 0.00 | 0.00 | 0.00 | 93 | 1037.3 |
| 20260905044833 | 25 | 187 | 0.0 | 0.0 | 0.00 | 0.00 | 0.00 | 93 | 1037.2 |
| 20260905044328 | 25 | 185 | 0.0 | 0.0 | 0.00 | 0.00 | 0.00 | 93 | 1037.4 |
| 20260905043827 | 25 | 186 | 0.0 | 0.0 | 0.00 | 0.00 | 0.00 | 93 | 1037.3 |
| 20260905043321 | 25 | 191 | 0.0 | 0.0 | 0.00 | 0.00 | 0.00 | 93 | 1037.6 |
| 20260905042817 | 25 | 187 | 0.0 | 0.0 | 0.00 | 0.00 | 0.00 | 93 | 1037.5 |
| 20260905042316 | 25 | 186 | 0.0 | 0.0 | 0.00 | 0.00 | 0.00 | 92 | 1037.5 |
| 20260905041812 | 25 | 171 | 0.0 | 0.0 | 0.00 | 0.00 | 0.00 | 92 | 1037.5 |
| 20260905041308 | 25 | 182 | 0.0 | 0.0 | 0.00 | 0.00 | 0.00 | 91 | 1037.6 |
| 20260905040802 | 26 | 178 | 0.0 | 0.0 | 0.00 | 0.00 | 0.00 | 90 | 1037.6 |
| 20260905040301 | 26 | 181 | 0.0 | 0.0 | 0.00 | 0.00 | 0.00 | 89 | 1037.5 |
| 20260905035756 | 26 | 187 | 0.0 | 0.0 | 0.00 | 0.00 | 0.00 | 89 | 1037.7 |
| 20260905035252 | 26 | 188 | 0.0 | 0.0 | 0.00 | 0.00 | 0.00 | 88 | 1037.9 |
| 20260905034749 | 26 | 184 | 0.0 | 0.0 | 0.00 | 0.00 | 0.00 | 88 | 1037.5 |
| 20260905034248 | 26 | 188 | 0.0 | 0.0 | 0.00 | 0.00 | 0.00 | 88 | 1037.7 |
| 20260905033747 | 26 | 188 | 0.0 | 0.0 | 0.00 | 0.00 | 0.00 | 87 | 1037.7 |
| 20260905033242 | 26 | 187 | 0.0 | 0.0 | 0.00 | 0.00 | 0.00 | 87 | 1037.8 |
| 20260905032742 | 26 | 185 | 0.0 | 0.0 | 0.00 | 0.00 | 0.00 | 86 | 1037.8 |
| 20260905032237 | 27 | 187 | 0.0 | 0.0 | 0.00 | 0.00 | 0.00 | 86 | 1037.8 |
| 20260905031732 | 27 | 180 | 1.6 | 3.2 | 0.00 | 0.00 | 0.00 | 85 | 1038.1 |
| 20260905031228 | 26 | 187 | 0.0 | 0.0 | 0.00 | 0.00 | 0.00 | 85 | 1038.0 |
| 20260905030723 | 26 | 186 | 0.0 | 0.0 | 0.00 | 0.00 | 0.00 | 85 | 1037.9 |
| 20260905030218 | 26 | 184 | 0.0 | 0.0 | 0.00 | 0.00 | 0.00 | 85 | 1038.2 |
| 20260905025713 | 26 | 179 | 0.0 | 0.0 | 0.00 | 0.00 | 0.00 | 86 | 1038.1 |
| 20260905025209 | 26 | 179 | 0.0 | 0.0 | 0.00 | 0.00 | 0.00 | 86 | 1037.9 |
| 20260905024704 | 26 | 176 | 0.0 | 1.6 | 0.00 | 0.00 | 0.00 | 86 | 1037.9 |
| 20260905024200 | 27 | 185 | 0.0 | 0.0 | 0.00 | 0.00 | 0.00 | 84 | 1037.9 |
| 20260905023654 | 27 | 180 | 0.0 | 0.0 | 0.00 | 0.00 | 0.00 | 83 | 1037.9 |
| 20260905023149 | 27 | 164 | 1.6 | 1.6 | 0.00 | 0.00 | 0.00 | 81 | 1037.8 |